Theta_e
361 359 361 360 361 361 360 358 360 359 363 359 360 360 361 360 362 365 367 364 357 356 357 351 354 354 354 354 350 351 354 356 357 355 356 358 359 361 362 361 360 359 359 358 358 358 358 358 358 358 358 357 357 357 357 357 357 356 356 356 355 355 355 355 354 355 355 355 355 354 354 354 354 354 354 355 355 355 355 354 355 354 354 354 354
359 360 359 359 361 361 359 358 359 357 357 359 363 364 362 365 363 363 361 358 362 365 364 352 347 348 354 351 351 348 353 356 357 356 356 357 358 360 362 362 361 360 359 359 359 359 358 358 358 358 358 357 357 357 357 357 357 356 356 356 355 355 355 354 354 355 354 355 355 354 355 356 355 355 355 354 355 354 354 354 354 354 354 354 353
363 363 362 360 363 364 361 360 359 365 363 364 366 366 363 363 364 362 368 361 359 366 364 356 355 348 351 349 351 354 360 352 357 358 356 356 357 359 360 362 362 362 361 360 359 359 359 359 359 358 358 358 357 357 357 357 356 356 356 355 355 354 354 354 354 355 354 354 355 355 355 355 354 355 356 354 355 355 354 353 354 353 354 353 353
364 364 361 362 361 364 364 364 365 366 367 364 366 368 369 366 367 371 367 366 364 367 366 357 356 347 351 349 353 351 353 354 351 355 356 357 357 358 359 359 362 362 362 362 361 360 359 360 360 359 358 358 358 357 356 356 356 356 356 355 355 355 354 354 355 355 355 355 355 355 355 354 355 354 355 354 355 355 353 354 354 353 353 353 353
371 367 363 363 361 366 362 365 365 368 365 364 365 368 368 368 369 371 368 364 361 357 356 353 353 357 347 348 350 354 360 358 352 350 358 357 358 358 358 360 360 362 362 362 362 362 361 360 361 359 358 358 358 357 357 357 357 356 356 355 356 356 356 355 356 356 356 355 355 355 355 355 354 354 355 354 354 354 354 353 353 353 353 353 353
369 370 366 361 364 365 364 364 367 364 369 370 368 366 365 366 365 366 361 364 360 360 362 354 356 364 356 348 352 362 355 352 351 349 350 358 359 359 359 359 360 360 361 362 362 361 362 361 361 361 359 359 358 358 358 358 357 357 356 356 356 356 356 356 356 356 356 355 355 356 355 354 354 355 355 354 354 354 353 353 353 352 352 352 350
371 369 367 365 360 360 363 363 369 369 367 367 365 366 364 366 367 364 367 363 363 362 359 361 352 357 358 355 351 359 361 355 355 353 353 350 357 358 359 360 361 360 360 360 361 361 361 362 362 361 360 359 360 359 359 358 358 358 357 356 357 356 356 356 356 356 355 355 355 355 355 354 355 355 354 354 353 353 353 352 351 352 352 350 348
369 369 369 364 360 360 364 368 368 368 367 366 367 363 364 364 366 363 363 357 357 356 360 363 356 351 356 358 349 360 363 356 357 348 348 357 352 354 359 360 360 361 363 360 359 360 361 362 361 361 360 361 361 360 359 359 359 358 357 358 357 357 357 357 356 356 356 356 355 355 355 355 354 354 354 354 353 353 352 351 351 351 350 347 347
368 368 369 364 363 362 364 362 368 367 368 365 363 362 365 358 367 366 365 367 359 351 355 361 357 348 345 346 345 356 358 366 354 349 347 350 351 349 355 359 361 363 362 361 361 361 361 361 362 361 361 361 360 361 359 359 358 358 358 358 357 357 357 357 357 356 356 356 355 355 354 354 354 354 354 353 353 352 351 350 350 350 348 344 344
369 372 372 365 363 361 364 369 368 366 367 364 367 362 363 365 366 370 364 363 362 355 353 353 354 351 355 342 355 352 356 362 357 361 359 359 358 349 348 349 354 358 359 359 360 362 358 361 361 362 361 361 360 360 360 360 359 358 357 357 357 357 357 357 356 356 356 355 355 355 355 354 354 353 353 353 352 351 350 349 350 350 345 343 346
371 369 369 366 366 367 366 366 366 366 364 364 365 364 365 365 363 365 365 366 364 361 357 358 350 353 343 342 350 361 358 357 361 359 364 346 346 346 344 349 344 351 359 359 360 361 360 358 360 360 360 362 361 361 361 360 360 360 358 358 357 357 357 357 356 356 356 356 355 355 354 353 353 352 352 351 351 350 348 349 349 348 343 346 345
372 372 371 370 367 367 366 364 367 366 363 360 359 363 363 362 364 362 362 363 367 364 359 357 358 353 354 352 355 356 362 363 360 357 354 345 358 354 346 348 349 347 347 355 359 359 360 361 362 360 361 361 362 363 362 361 361 360 360 359 358 357 357 357 357 355 356 356 355 354 353 353 351 351 351 350 350 349 349 349 349 346 343 344 343
374 373 371 370 367 368 365 365 368 365 364 363 362 363 366 364 364 365 361 359 362 364 358 356 357 356 353 351 350 354 358 361 355 349 354 345 356 354 353 345 350 355 351 354 357 354 358 361 361 360 362 360 361 362 363 362 361 361 360 359 358 357 356 357 357 356 356 356 354 354 355 354 353 351 350 350 350 349 347 349 349 346 343 344 344
373 373 372 370 366 364 364 365 369 368 365 366 365 366 363 361 362 364 363 361 361 356 357 358 357 349 347 349 349 359 356 348 345 344 351 347 347 359 348 343 344 343 346 352 353 349 353 358 366 361 362 362 359 360 361 361 361 361 361 360 359 358 356 356 356 356 356 356 354 354 354 354 354 351 350 349 349 349 349 349 349 345 343 343 344
371 371 369 370 369 369 369 368 367 368 367 365 365 362 364 359 360 361 360 364 362 362 362 355 351 354 359 353 344 340 356 355 350 345 342 344 345 341 347 342 344 348 353 351 350 351 350 351 354 359 362 362 361 361 360 360 361 363 360 360 359 358 357 356 356 356 356 355 354 356 355 355 353 352 351 351 349 349 349 350 348 347 344 345 344
366 366 367 369 371 370 371 374 371 371 368 363 363 362 361 360 360 362 362 355 353 356 360 359 358 355 341 343 342 339 340 341 351 350 343 341 341 340 342 343 346 351 361 352 349 352 351 352 356 355 358 359 367 363 362 361 363 364 363 361 360 359 357 357 357 357 356 356 355 356 356 355 354 352 352 353 351 351 350 350 349 345 344 346 344
366 367 366 370 371 372 371 371 373 370 370 367 365 362 361 359 362 362 361 359 353 355 360 355 359 360 359 348 344 340 341 339 336 353 344 341 339 339 345 349 345 353 358 355 354 366 353 353 357 360 363 361 360 361 364 362 362 364 361 362 360 357 356 357 357 357 357 357 356 355 357 356 355 352 351 352 352 351 350 349 348 347 345 345 345
367 367 365 368 371 372 369 368 372 376 374 366 365 364 362 361 362 362 361 363 360 355 350 361 358 361 362 359 352 345 345 344 343 339 348 343 341 341 344 342 345 350 353 350 349 352 363 353 359 358 359 360 358 356 361 362 364 362 361 360 361 358 358 358 357 357 358 358 357 355 357 357 356 354 351 351 351 351 349 349 347 347 344 343 345
362 366 366 370 370 372 371 369 369 371 369 366 363 359 359 361 363 364 363 367 364 357 353 352 358 361 351 346 349 352 346 351 342 348 343 356 352 342 339 342 344 346 347 347 346 350 350 354 352 354 358 358 357 358 362 359 361 363 366 365 362 359 359 359 358 357 356 357 357 356 356 357 357 356 352 350 351 352 350 350 349 347 346 344 344
365 369 369 369 371 371 374 372 369 363 369 366 364 361 361 363 367 369 368 367 367 363 354 352 357 356 359 355 355 350 349 347 346 344 345 342 354 349 341 341 341 342 345 344 345 347 351 360 354 356 356 358 359 360 356 358 357 362 365 361 363 361 360 360 358 357 356 356 357 358 357 357 358 357 353 351 351 352 351 350 350 348 346 344 344
370 366 368 369 370 372 373 373 370 370 370 366 362 359 363 368 369 368 369 371 369 369 362 364 361 358 357 362 356 355 346 350 347 351 357 343 343 347 347 341 341 346 342 337 344 349 351 351 357 351 357 358 358 359 358 361 359 356 363 361 364 363 361 360 358 358 358 357 356 357 358 358 358 358 357 354 351 352 352 351 350 348 348 346 345
366 370 369 369 369 371 369 367 368 361 364 365 364 364 365 369 369 367 369 367 373 371 366 371 363 364 360 360 365 360 357 354 345 341 346 355 345 342 341 339 348 354 358 346 343 346 349 351 356 349 353 357 358 359 359 360 364 361 360 361 362 362 361 358 358 358 358 358 357 356 358 359 359 359 359 357 353 351 352 352 351 350 349 349 347
360 366 368 365 367 368 363 365 366 367 369 371 365 362 359 363 365 371 371 367 369 370 366 367 367 369 359 369 361 354 353 352 353 352 349 349 345 338 338 337 341 340 354 349 360 353 352 351 350 348 353 355 357 358 358 359 361 357 362 358 358 359 359 358 357 357 358 356 358 356 357 359 359 360 360 359 357 353 352 352 350 351 352 350 348
363 362 359 359 366 367 367 366 368 370 369 370 370 366 363 361 365 369 369 371 373 371 365 365 361 369 362 359 358 355 355 351 351 355 357 358 350 344 347 349 351 348 351 354 354 346 349 345 346 355 352 356 357 361 362 361 361 363 362 358 355 357 358 360 359 356 355 355 354 356 357 357 358 360 360 360 359 356 353 351 352 352 352 352 352
364 358 358 360 365 368 367 369 372 368 372 372 374 376 375 372 368 363 367 370 373 371 371 365 362 363 358 358 356 354 357 355 351 348 349 359 356 349 343 344 352 344 348 349 351 356 357 349 346 348 355 362 362 363 362 362 363 361 363 361 355 356 356 357 357 355 354 353 354 354 354 355 356 356 355 356 357 357 356 354 353 353 353 352 352
358 361 359 358 361 367 369 369 375 374 375 375 374 375 372 370 375 370 362 368 371 370 369 365 368 365 363 361 356 356 352 351 351 357 348 349 348 343 348 359 342 342 360 355 358 350 349 351 354 363 362 358 358 361 360 354 357 361 362 361 356 354 354 355 356 354 353 353 353 353 353 354 355 355 355 355 356 357 356 355 354 355 354 353 353
359 363 364 368 362 365 368 367 369 374 373 373 369 374 370 369 371 368 373 370 367 366 368 362 360 360 364 368 365 362 356 361 355 347 351 350 350 358 361 349 345 345 348 357 355 351 341 350 346 351 359 369 374 375 358 356 355 364 360 358 360 352 352 351 353 352 351 351 352 352 352 353 353 352 352 355 355 357 356 355 355 355 355 354 354
361 364 362 365 366 365 367 366 370 368 372 371 371 368 371 370 372 370 369 361 367 366 367 363 360 363 363 372 371 357 361 356 357 364 359 364 360 361 362 358 350 343 349 347 352 351 347 351 357 357 357 360 368 368 366 357 356 365 363 356 358 358 350 349 349 350 348 347 349 350 350 351 351 351 352 353 354 356 356 354 354 354 355 355 354
361 360 362 363 367 365 363 362 369 369 370 371 369 370 372 368 366 371 368 363 369 368 368 364 365 359 359 362 368 366 371 366 366 361 369 366 364 370 366 361 365 352 345 345 350 347 353 348 354 361 363 366 362 361 357 358 358 364 360 359 357 359 355 347 347 347 347 347 346 346 348 349 350 350 351 351 352 354 355 353 351 351 352 352 352
353 354 359 362 364 368 365 365 366 365 365 365 369 369 370 369 368 370 368 371 370 369 370 365 364 367 365 363 362 366 366 364 364 357 377 369 371 364 367 365 367 355 354 347 347 353 350 350 348 358 374 358 371 362 362 362 358 361 360 360 358 357 353 348 346 345 345 345 344 343 344 346 346 347 348 349 350 350 351 351 350 349 349 349 349
353 360 361 360 362 363 366 364 365 365 366 366 369 368 369 367 366 366 368 371 370 368 371 368 363 364 370 366 371 369 370 369 372 361 369 366 370 370 369 366 360 358 356 353 346 357 359 350 355 355 366 362 354 357 356 359 358 357 355 356 358 355 352 351 347 345 344 343 342 342 342 342 342 342 343 345 345 346 347 348 348 349 349 348 348
353 354 362 358 361 360 360 358 358 359 363 362 365 367 367 365 363 361 362 367 366 366 364 364 360 365 365 364 370 368 372 371 368 367 378 370 370 368 366 368 367 365 361 356 349 347 358 353 352 352 353 361 358 362 362 365 368 357 356 359 359 357 356 354 351 347 344 343 342 341 340 339 337 338 341 343 344 345 346 347 347 348 347 346 347
355 352 354 358 360 361 360 360 357 358 362 362 362 365 365 366 367 366 366 366 364 365 367 366 362 364 366 364 367 368 372 370 370 366 364 367 366 368 370 371 367 364 360 356 351 350 356 361 359 358 359 360 358 365 363 362 362 362 357 359 360 358 357 356 356 350 345 343 342 341 340 339 338 338 340 341 343 344 345 345 345 344 343 343 344
356 353 354 354 359 360 360 363 362 361 363 365 361 363 364 365 365 361 362 368 365 364 366 366 366 365 368 368 366 367 370 367 365 361 361 358 361 360 364 363 364 364 365 359 356 353 352 361 362 365 360 363 356 363 357 358 357 359 360 361 362 360 359 358 359 361 350 346 342 341 340 339 337 337 338 339 341 342 343 343 342 340 340 342 340
356 355 356 352 356 361 360 363 364 361 365 363 362 362 363 364 363 361 360 362 364 363 363 365 364 365 363 366 363 364 363 363 364 361 360 360 360 361 362 361 362 362 367 364 360 356 354 356 363 356 356 363 361 361 365 364 363 365 362 361 360 360 360 360 361 360 351 346 342 340 339 338 337 337 336 336 338 338 339 339 337 337 337 336 334
352 356 357 356 357 360 361 363 365 362 363 362 361 361 363 364 364 364 364 363 361 362 362 363 363 364 362 362 360 360 362 361 364 364 363 362 363 364 364 371 371 365 366 369 366 360 358 355 359 360 362 359 359 361 360 360 359 359 359 360 362 362 361 363 362 360 355 348 345 343 341 338 336 335 335 335 334 334 334 333 332 332 331 332 332
351 353 357 360 361 362 359 361 364 363 362 362 361 359 361 363 364 363 363 365 364 362 362 364 367 364 363 361 361 361 363 362 363 361 361 363 363 362 362 363 364 367 368 368 367 367 362 358 357 362 364 363 365 364 364 361 361 362 363 362 362 361 362 365 368 363 353 348 346 345 342 340 338 337 336 334 333 332 332 332 331 330 329 328 327
352 352 355 356 360 363 361 360 362 364 364 364 363 361 359 360 362 362 363 364 363 364 364 364 364 364 363 362 361 362 361 359 359 361 363 362 364 363 362 363 366 365 364 365 366 365 362 359 358 358 363 362 362 364 368 369 364 360 360 362 363 363 362 361 363 363 363 362 362 361 353 349 346 339 337 336 335 333 331 331 331 331 328 326 323
352 349 352 356 358 363 364 363 361 363 364 364 365 365 363 362 362 361 360 363 363 362 362 362 362 362 362 361 362 362 361 361 359 359 363 365 364 363 365 365 364 364 364 364 365 364 363 361 361 360 359 361 361 358 365 368 367 364 359 356 356 361 363 362 362 366 364 363 359 352 353 352 349 348 342 336 335 333 331 330 330 329 328 326 324
353 349 350 355 358 360 364 364 363 364 365 365 366 367 366 364 362 361 360 361 361 361 361 361 360 360 361 361 358 359 360 362 362 362 363 363 365 362 365 366 366 365 363 363 364 363 362 360 359 358 359 360 364 365 364 362 359 360 362 359 355 356 361 369 369 365 364 363 360 360 353 351 350 349 343 340 339 337 334 333 335 335 334 330 327
354 352 351 354 357 358 361 364 364 363 363 364 365 366 365 364 361 359 360 360 360 360 361 360 362 362 360 358 357 355 360 370 364 363 363 366 363 364 365 367 366 366 364 363 363 364 363 362 359 361 359 358 359 360 359 358 356 354 359 365 360 357 357 357 364 365 360 357 357 356 355 357 356 356 357 357 358 353 352 345 344 342 338 332 329
359 359 355 354 357 358 359 363 364 363 362 363 357 347 353 363 362 356 359 360 359 359 361 361 360 361 360 356 352 365 364 365 358 356 354 357 363 363 369 368 366 364 364 364 364 364 363 360 359 358 356 355 356 359 359 360 359 364 360 357 354 353 353 353 355 359 362 357 354 352 354 358 357 356 357 356 358 358 358 358 358 353 341 333 331
359 361 359 355 353 357 358 359 361 362 361 360 345 337 340 348 360 359 357 360 361 361 360 361 359 358 357 357 356 361 368 370 363 354 352 350 352 354 356 364 373 375 366 363 362 363 361 360 360 358 356 354 356 357 356 355 358 362 358 355 353 352 350 346 343 349 363 359 353 352 352 357 357 354 355 355 356 356 357 358 346 341 337 335 334
360 361 359 358 356 355 358 359 359 362 363 350 335 334 336 338 349 362 358 358 359 360 360 359 360 359 358 356 356 356 357 362 370 364 354 349 346 348 348 349 351 351 354 362 363 362 363 360 359 358 357 355 357 359 357 356 363 356 355 354 353 351 348 345 345 344 353 358 353 350 349 354 358 355 353 354 356 357 356 345 337 332 331 331 330
360 360 359 358 358 356 357 359 358 361 362 345 331 332 334 335 337 354 360 357 354 356 359 360 359 359 359 358 356 356 352 366 365 369 365 360 346 342 345 346 347 344 338 336 340 353 355 355 355 355 358 359 358 359 368 364 360 352 353 353 355 351 348 346 348 349 352 356 352 348 347 351 354 352 352 355 356 357 357 345 337 334 333 332 330
360 360 359 359 359 359 358 360 360 360 361 343 328 329 331 332 334 342 362 360 357 355 359 360 360 360 361 360 358 357 359 362 364 363 369 366 364 360 357 356 358 358 347 338 336 335 343 350 351 349 353 358 357 360 364 366 359 356 355 354 355 350 349 348 350 351 353 357 351 349 347 349 354 353 350 353 355 353 352 343 335 335 333 329 327
359 361 358 358 359 360 358 358 363 360 359 335 325 325 327 328 331 338 362 362 362 360 361 363 364 362 362 363 362 361 361 361 364 367 366 369 371 368 363 360 360 361 361 360 356 353 350 349 351 352 353 355 357 360 362 365 364 361 359 357 353 351 350 352 352 353 354 357 356 353 345 348 351 348 348 349 350 348 350 340 337 334 330 329 329
358 362 362 360 360 360 361 358 357 360 357 328 325 324 325 326 330 350 361 362 361 362 365 367 366 366 365 365 364 363 363 364 363 352 360 368 368 369 369 367 365 365 364 363 350 350 359 357 355 355 356 357 351 360 355 354 363 360 357 357 355 352 350 349 349 352 351 356 355 350 344 344 349 347 346 349 350 346 347 348 340 335 332 331 332
358 359 362 360 363 362 361 361 358 358 361 331 322 322 323 324 331 356 361 361 361 359 360 365 371 371 369 367 368 366 365 366 358 339 341 361 366 366 366 366 367 366 366 369 348 338 339 336 337 340 339 337 333 331 332 329 337 349 353 348 347 351 348 346 347 347 347 348 349 350 348 344 347 345 342 343 342 340 344 347 349 336 331 332 330
359 359 362 363 363 362 360 360 361 361 360 340 317 319 320 320 336 358 360 361 361 360 361 362 365 368 369 373 373 369 368 368 349 336 335 353 364 365 365 364 363 363 363 362 357 353 333 333 334 335 335 336 335 334 336 333 330 344 348 344 348 349 347 347 342 343 345 347 350 346 343 342 342 342 338 338 338 344 344 347 345 343 336 334 330
360 363 363 363 363 363 360 361 355 360 360 345 313 319 317 317 336 360 361 361 360 360 360 361 363 363 365 368 371 364 365 361 343 333 331 351 365 365 364 361 359 358 360 363 362 362 356 351 351 353 352 348 353 352 349 339 334 345 348 348 349 349 346 345 344 343 341 344 348 349 341 340 339 341 339 335 333 338 346 343 344 343 342 343 341
Wind_Speed
4 4 3 3 2 3 2 0 1 1 2 1 2 1 2 4 4 2 2 1 3 2 2 5 3 4 3 3 8 10 9 7 7 8 6 5 5 8 12 12 11 10 10 9 9 8 8 8 7 7 7 7 7 7 6 6 6 5 4 4 4 3 2 2 2 3 4 5 6 7 7 8 8 8 8 8 8 7 7 7 8 8 8 8 9
4 4 4 2 3 4 4 3 3 4 4 3 3 3 3 1 3 2 2 2 2 1 0 2 5 4 3 6 4 6 7 7 7 7 8 6 6 7 13 11 11 11 10 10 9 9 8 8 8 7 7 7 7 6 6 6 5 5 4 4 3 2 1 2 2 3 4 5 6 7 7 7 8 8 7 7 7 6 6 7 7 8 8 8 8
3 4 4 4 3 2 3 5 3 2 3 3 2 3 2 1 1 3 3 4 3 2 0 2 3 6 4 4 4 4 2 7 9 9 9 7 6 7 9 13 11 11 10 10 10 9 8 7 7 7 7 7 7 7 6 5 5 4 4 3 2 1 1 1 2 3 4 5 6 6 7 6 6 6 6 7 7 6 6 6 7 8 8 8 8
3 3 4 3 2 2 2 1 2 2 2 3 3 2 2 1 2 1 1 4 1 2 2 2 1 4 4 6 3 5 5 4 9 9 9 8 7 6 6 8 12 12 11 10 9 9 8 8 7 7 6 6 5 5 5 5 5 4 3 3 2 0 1 1 2 4 5 5 5 5 6 6 6 5 6 6 6 6 6 7 7 7 7 7 7
3 3 4 2 2 2 2 3 2 2 2 4 4 2 2 1 1 1 2 2 2 1 3 1 2 1 5 5 4 3 2 3 4 8 10 10 8 7 7 7 7 11 12 11 11 10 10 9 9 7 6 5 5 4 4 4 3 3 2 1 1 2 3 3 4 4 4 5 4 5 5 5 5 5 6 6 5 6 6 6 6 6 5 6 6
3 2 3 3 3 2 3 2 2 2 2 1 2 2 2 2 2 2 2 2 1 3 2 2 2 2 2 6 4 2 4 3 3 4 8 10 8 8 7 7 6 6 6 11 11 11 10 10 10 9 8 7 6 5 5 5 4 4 3 3 3 3 3 3 3 3 4 4 4 3 4 5 6 5 5 5 5 5 5 5 6 5 5 5 5
4 3 3 3 3 3 2 3 1 2 2 2 1 2 1 1 2 1 1 2 1 2 2 1 2 2 3 4 3 2 2 2 3 3 3 6 9 8 7 8 7 6 6 5 8 9 10 10 9 9 8 8 7 7 6 5 5 4 3 3 2 2 1 3 3 2 3 3 3 3 4 5 4 4 4 4 4 4 4 5 5 4 4 5 4
4 3 3 2 2 2 3 3 2 1 3 2 1 1 2 1 2 1 2 3 5 2 3 1 1 2 2 2 4 2 1 3 2 4 5 3 4 8 7 6 7 7 8 6 5 7 11 10 9 9 8 8 8 7 7 6 6 5 3 3 3 2 2 2 2 2 2 2 3 3 3 3 3 3 4 4 3 3 3 4 4 3 4 4 4
4 4 2 2 1 3 3 2 2 3 3 2 1 1 0 1 0 1 2 1 1 2 3 2 2 4 6 3 5 3 2 1 2 3 5 4 4 7 8 8 6 8 5 6 6 5 8 10 9 9 9 8 8 7 6 6 6 4 4 3 3 3 3 2 3 2 2 2 2 2 2 2 3 3 4 3 3 2 3 3 3 2 2 2 3
5 4 3 3 2 3 2 2 3 3 2 2 0 1 1 1 2 0 1 1 1 1 3 2 2 1 2 6 3 3 3 1 2 3 2 1 2 5 6 7 7 7 6 5 6 6 5 8 9 9 9 8 8 7 7 7 6 5 5 4 4 3 2 3 2 2 2 1 1 1 1 2 2 2 2 2 2 2 2 2 2 1 1 1 2
6 5 4 3 2 3 3 3 3 3 3 2 0 1 1 1 2 1 2 1 2 2 1 4 2 2 5 6 2 3 3 2 2 0 1 2 3 4 6 5 4 6 7 5 6 7 7 5 5 5 6 11 9 9 9 7 7 6 5 5 3 3 3 3 3 2 2 2 1 2 1 1 1 1 1 1 0 0 1 2 2 1 1 2 1
6 7 5 3 3 2 4 3 3 4 4 3 2 1 1 1 2 3 2 2 2 2 3 3 2 4 3 3 2 3 2 1 2 2 3 3 1 4 3 3 4 5 7 8 8 7 7 7 7 7 6 9 12 11 10 9 8 7 6 6 6 4 4 4 4 3 3 2 2 1 1 1 1 2 1 2 2 2 3 2 2 1 2 2 2
4 5 5 4 3 2 2 1 3 4 4 4 4 3 2 2 1 1 2 1 2 1 2 1 3 2 4 1 3 2 2 1 2 3 2 4 2 3 3 5 3 2 5 3 2 8 6 7 7 6 6 5 7 11 11 11 9 8 8 7 6 6 5 5 5 4 3 3 3 3 4 4 4 3 4 3 3 4 4 5 3 4 4 4 3
5 4 4 4 5 3 4 3 2 3 4 3 3 3 3 1 2 1 2 1 2 4 3 1 1 2 2 1 3 2 3 4 5 3 2 3 4 2 4 5 6 6 4 3 2 4 6 4 2 7 6 5 6 5 6 7 7 10 10 9 8 7 6 6 5 4 4 4 4 3 4 5 5 4 5 5 5 6 6 6 6 5 6 5 5
6 6 4 4 5 5 5 6 5 5 5 4 3 3 2 2 2 1 0 1 1 1 2 3 2 1 1 1 2 2 1 3 2 3 6 3 4 6 2 4 7 4 5 5 4 5 4 4 4 3 3 5 7 5 6 6 8 12 11 9 9 8 8 7 6 6 6 6 5 5 6 6 6 7 7 7 7 7 8 8 7 7 7 7 7
6 6 5 6 5 4 2 1 5 3 4 4 4 4 3 3 2 2 2 2 2 1 2 1 2 1 2 2 3 3 3 2 2 2 3 5 4 4 2 6 6 4 2 3 4 5 4 6 4 4 3 2 1 6 6 6 11 12 13 11 10 9 9 8 8 7 7 6 6 7 8 8 8 8 9 9 9 9 9 9 9 9 9 9 9
6 6 4 5 5 4 5 3 3 5 4 4 4 4 5 4 4 3 3 1 2 2 1 2 1 3 2 1 2 1 1 4 4 2 2 3 4 6 3 1 7 4 2 2 3 1 3 7 5 4 2 2 1 1 3 5 6 5 9 12 11 10 10 9 9 9 8 8 8 8 10 9 9 9 9 10 10 11 11 11 10 10 10 10 10
5 5 5 5 3 3 5 4 4 4 5 4 3 1 5 6 5 3 2 2 3 1 1 2 2 2 2 1 4 2 2 4 1 2 4 3 7 6 4 3 9 5 4 4 4 4 1 7 6 5 3 4 4 3 3 6 6 5 5 7 13 12 11 10 10 10 10 10 10 10 11 11 10 10 10 11 12 12 12 12 12 11 11 11 11
6 5 4 4 4 3 4 5 4 3 5 5 4 4 4 4 2 3 2 1 2 2 1 1 3 1 3 4 4 2 3 2 2 0 2 3 2 3 4 4 6 10 5 5 8 5 5 6 6 7 5 5 4 4 3 4 9 7 11 12 14 13 12 12 12 12 12 12 12 11 11 12 12 12 12 12 13 13 13 13 12 12 12 12 12
4 4 4 4 4 4 3 3 4 5 4 5 5 4 2 2 3 3 4 2 1 2 2 2 1 3 1 2 1 3 4 3 4 2 1 0 1 4 3 3 3 6 9 8 10 7 6 3 4 7 6 4 5 4 5 5 5 5 4 12 13 13 12 12 13 14 13 13 13 13 13 13 13 13 13 13 13 14 14 14 14 13 14 13 13
3 5 5 4 4 4 3 3 3 2 4 4 4 7 7 4 4 4 4 3 1 3 4 3 0 2 2 2 3 0 2 1 4 2 0 2 2 1 2 5 4 5 6 6 2 8 7 6 3 4 7 6 5 4 4 4 6 6 6 12 12 14 13 13 14 15 14 14 14 14 15 15 15 15 15 14 14 15 15 15 15 15 15 14 14
5 3 5 4 5 4 4 4 4 4 3 3 4 3 7 5 3 3 3 3 1 1 2 0 0 1 2 2 2 2 2 1 3 4 2 1 2 2 3 4 2 3 1 3 5 3 4 6 5 4 6 6 6 5 4 4 5 6 8 14 14 14 14 14 14 15 15 15 15 16 16 16 16 16 16 16 16 16 16 16 16 16 16 16 15
6 5 4 6 5 5 6 5 4 4 2 2 1 1 5 5 4 3 3 4 3 3 2 2 2 1 2 1 2 2 2 2 1 3 2 1 1 4 3 5 2 3 2 3 1 2 2 7 6 6 5 5 7 6 5 4 5 5 11 16 15 15 14 14 13 15 16 15 16 17 17 17 17 17 17 17 17 17 17 17 17 17 17 17 17
6 6 6 8 5 5 5 5 5 3 4 2 2 3 2 5 5 5 3 3 2 0 3 1 2 1 1 2 4 4 4 2 2 3 2 1 2 3 2 2 2 2 2 2 3 4 3 5 3 2 8 4 6 6 6 6 5 9 9 14 15 15 15 14 15 15 16 16 16 16 17 17 18 18 18 18 18 18 17 18 18 18 18 18 18
5 7 8 7 6 6 5 4 4 4 3 3 2 2 2 1 4 6 4 4 3 2 1 2 2 1 2 2 2 3 2 3 4 3 4 3 2 2 4 4 2 3 3 3 1 1 2 3 7 5 3 4 4 5 5 6 5 10 11 11 17 16 16 16 16 17 17 18 17 17 17 16 16 16 16 16 16 17 18 19 19 19 19 19 19
5 5 5 8 6 7 6 5 3 4 3 2 2 2 1 2 0 2 3 5 3 3 5 4 3 3 4 3 2 4 2 4 3 1 4 5 4 5 4 1 3 3 1 1 2 1 2 3 2 4 4 4 4 6 5 6 4 12 14 10 14 16 16 16 17 17 18 18 18 18 18 17 17 17 18 17 18 18 18 19 20 20 20 20 19
7 5 5 4 7 7 8 6 5 4 4 3 3 2 3 2 2 1 1 3 5 4 4 4 4 4 1 2 2 1 6 3 2 4 3 2 4 1 3 2 3 4 4 2 3 3 4 3 5 5 4 3 2 3 6 5 6 11 14 9 7 15 16 18 18 18 18 19 19 19 19 19 19 19 20 19 19 19 20 19 20 20 20 20 19
7 5 7 5 5 7 8 7 5 6 5 5 4 4 4 4 3 2 2 3 2 4 3 3 4 4 2 2 0 3 3 3 3 0 1 2 5 3 3 2 1 2 3 3 1 2 7 3 2 4 4 4 2 2 4 6 5 9 13 7 7 8 16 18 18 18 18 18 18 19 20 20 21 21 21 20 20 20 19 21 20 20 20 20 19
8 7 7 7 5 6 7 8 7 5 6 6 5 4 4 4 4 3 3 4 3 3 2 3 3 3 4 5 3 4 2 3 3 3 3 4 4 3 2 1 1 0 1 2 2 3 3 5 1 1 4 4 5 4 5 5 5 6 5 6 7 6 10 17 18 18 18 18 19 19 20 20 20 20 21 21 20 19 19 20 21 21 21 21 21
6 8 7 8 6 6 6 6 8 7 6 7 6 6 5 4 5 5 4 3 2 2 2 3 3 3 3 2 4 3 4 3 2 4 2 2 2 0 1 2 2 2 1 1 3 2 3 5 3 1 2 4 3 5 4 5 8 8 6 7 7 8 13 16 18 19 19 19 19 19 19 19 18 18 18 19 19 20 20 21 21 21 21 21 21
7 5 8 8 8 7 6 6 7 8 7 7 7 6 5 5 5 5 4 4 3 3 2 3 3 3 2 2 2 3 2 2 2 2 3 4 2 2 2 2 4 3 2 1 1 2 2 3 3 2 1 3 6 6 5 6 9 11 8 7 7 11 15 12 15 17 17 18 18 17 18 18 17 17 18 19 20 20 21 21 21 22 22 22 21
8 8 6 8 9 9 9 8 9 8 9 8 8 7 7 6 6 6 6 6 5 4 4 4 4 3 4 3 2 2 1 2 3 3 1 3 2 4 2 1 2 2 2 2 3 6 3 4 6 6 4 3 6 5 4 3 5 12 7 7 9 13 11 9 13 14 14 15 16 17 17 17 18 19 20 20 21 21 21 21 21 22 23 22 22
9 9 8 7 9 9 10 9 10 8 8 8 7 7 7 7 6 5 4 7 7 6 5 5 5 3 4 4 3 3 2 2 3 3 3 3 4 3 2 2 2 3 3 3 4 6 4 4 5 4 5 5 3 4 5 4 4 5 8 8 9 9 9 9 7 9 12 14 16 16 17 19 19 20 21 21 21 21 21 21 22 22 22 22 22
9 10 10 9 8 10 10 10 9 8 8 8 10 7 8 7 7 7 6 5 8 7 5 5 5 4 2 3 3 3 3 3 3 4 4 4 4 5 4 4 4 4 5 5 5 5 6 2 4 3 4 4 5 4 6 7 7 6 7 7 8 9 9 8 5 4 9 13 15 16 17 18 19 19 19 20 20 20 21 21 22 22 22 22 22
10 9 10 11 9 8 9 8 9 8 7 9 9 8 8 9 8 8 7 7 6 7 7 6 6 5 4 3 4 4 4 5 5 4 4 4 4 3 4 6 6 4 4 6 5 6 6 4 3 4 3 3 4 5 5 5 5 5 6 8 9 8 7 5 3 4 7 7 8 12 14 16 17 17 18 19 19 20 21 21 21 21 21 21 21
11 10 10 11 10 9 9 9 9 9 8 9 9 9 9 9 9 8 7 7 7 6 7 7 7 6 6 5 5 5 5 5 4 4 4 4 4 4 3 2 3 4 4 4 5 5 5 7 3 4 3 4 5 6 7 7 7 6 6 7 8 9 7 4 3 4 5 8 12 13 12 13 14 15 17 18 18 19 19 19 19 19 19 20 20
12 11 10 10 10 10 11 10 9 9 9 9 9 10 9 8 9 9 8 6 7 8 7 6 7 7 7 6 6 5 4 4 4 5 4 4 4 4 4 4 4 3 2 2 2 3 4 7 6 4 5 5 5 6 7 8 7 7 8 9 10 10 6 3 3 4 6 12 13 14 15 14 14 14 15 16 17 18 18 18 18 18 19 19 20
12 12 12 11 10 11 11 11 10 9 9 9 9 10 10 9 9 9 9 8 7 7 8 8 7 7 6 7 6 6 6 6 5 4 4 6 4 5 5 4 3 3 4 4 4 4 5 7 7 7 4 6 6 6 5 5 7 8 8 8 7 7 5 4 2 4 6 6 5 6 7 9 11 14 15 16 17 17 17 17 17 18 19 19 19
14 14 14 13 11 11 12 11 12 10 10 10 9 10 10 9 9 9 9 9 9 7 7 8 9 8 8 7 6 7 6 6 6 6 5 5 5 5 5 5 4 4 3 4 4 5 6 6 7 8 7 6 6 8 6 7 7 7 9 9 9 5 4 2 2 3 4 5 5 8 10 12 14 13 16 17 17 16 16 16 16 17 18 19 19
15 15 15 15 12 11 12 12 11 10 10 11 10 10 10 9 9 10 10 9 10 9 8 9 9 9 9 9 9 8 7 6 6 5 5 5 5 5 5 4 4 4 4 4 4 4 5 5 7 8 6 5 3 4 5 6 8 9 7 8 10 6 2 3 1 2 2 3 5 6 8 9 9 12 14 13 14 15 15 15 16 17 18 19 19
14 15 14 15 14 13 12 11 11 11 11 11 10 11 11 11 9 10 11 10 9 9 9 10 9 9 8 9 10 10 9 11 12 10 8 7 5 5 5 5 5 5 5 5 5 5 5 5 7 6 6 5 4 5 6 7 9 11 7 3 5 3 4 4 0 2 4 4 4 6 8 7 9 9 8 8 8 10 9 11 11 15 16 17 18
12 11 11 11 14 14 13 12 12 11 10 10 12 17 15 11 10 10 9 10 10 8 8 9 9 10 10 10 10 14 15 16 16 16 15 14 11 7 4 5 6 6 6 4 5 4 5 6 7 7 7 6 4 5 6 6 6 6 7 6 6 4 6 6 5 3 3 3 4 6 8 7 8 9 7 8 8 7 6 6 6 7 9 13 15
13 12 11 12 13 14 14 13 14 12 12 11 16 16 17 17 12 10 9 9 9 9 8 8 8 8 8 9 8 8 8 11 13 17 16 16 15 13 12 9 4 3 5 6 5 5 6 7 7 7 8 7 6 6 7 6 5 3 4 4 5 6 6 7 10 6 1 2 5 6 9 7 6 9 8 8 8 8 7 6 9 12 13 13 12
12 11 12 12 11 12 13 14 14 13 12 13 17 18 18 17 14 10 9 8 9 9 9 8 8 8 7 7 8 7 6 6 6 10 14 16 16 16 15 14 12 8 6 4 3 3 4 6 7 8 7 7 4 4 6 6 4 5 5 4 3 3 3 1 2 6 7 8 9 8 8 7 4 6 8 8 8 7 8 11 13 11 10 10 11
12 12 11 12 11 10 11 13 13 13 12 14 16 19 19 18 18 13 9 9 8 9 9 9 8 8 8 7 7 6 7 12 9 8 9 10 14 16 15 13 11 12 13 12 9 8 6 8 10 11 9 5 5 5 3 2 2 5 6 6 3 1 0 2 4 7 9 7 8 7 7 7 5 6 7 7 7 6 7 9 12 14 15 15 13
11 12 13 12 11 10 9 10 12 12 13 13 18 19 20 20 19 15 10 9 9 8 8 9 9 8 8 8 8 8 6 5 6 8 8 9 8 8 7 6 7 11 12 13 14 13 10 10 11 13 12 5 7 7 7 3 5 8 6 6 2 2 4 6 7 9 9 4 5 6 7 6 3 4 6 6 5 6 6 10 15 16 16 14 12
11 12 13 12 11 11 11 10 8 12 12 16 18 20 20 21 20 14 11 9 6 7 7 7 9 9 9 9 9 9 7 7 6 6 7 8 7 7 9 9 9 9 8 9 9 8 8 7 11 13 15 10 9 10 10 8 8 6 0 2 2 0 3 6 7 9 8 6 6 4 6 8 4 4 3 5 7 6 5 9 14 15 12 14 16
11 10 11 11 11 12 11 11 11 10 11 17 19 20 21 21 21 11 11 10 9 6 4 5 7 8 8 9 9 9 8 7 10 12 9 6 7 7 7 8 8 8 9 10 12 12 10 10 12 14 12 12 6 8 3 4 3 6 4 3 2 3 4 6 6 4 4 2 4 4 5 6 5 7 6 3 4 6 7 7 7 12 17 17 18
11 12 11 12 10 11 12 11 12 10 8 13 19 21 21 22 15 9 13 10 10 10 7 5 4 4 6 8 8 8 9 9 10 13 13 11 7 8 8 8 8 9 8 9 16 19 17 16 17 21 23 12 11 9 5 6 7 3 4 2 3 1 4 6 5 4 4 6 5 4 3 5 4 7 10 5 5 6 6 5 6 11 15 16 14
12 13 12 11 11 12 13 13 12 10 10 10 18 18 20 20 17 12 11 10 9 9 8 7 6 5 6 10 9 8 8 8 11 14 14 11 8 8 8 7 7 7 5 6 5 8 18 18 12 13 13 12 12 7 5 2 8 5 2 4 1 3 5 4 6 6 6 7 3 6 4 4 6 5 10 11 7 1 4 4 7 8 13 12 13
11 10 10 11 11 11 13 13 14 13 12 9 16 18 19 19 16 11 10 10 9 9 8 8 8 8 8 9 12 12 10 10 11 13 14 12 9 9 8 7 8 8 7 5 7 4 5 3 4 8 12 12 8 1 1 3 5 4 2 1 1 2 4 5 6 7 6 2 5 7 5 5 7 5 7 9 11 8 2 4 5 6 7 6 10
Wind_Direction
153 142 146 159 154 161 126 210 338 260 240 188 247 197 249 231 225 214 13 177 147 85 137 138 147 104 90 127 141 154 160 153 143 140 137 144 145 150 148 145 143 143 144 144 146 143 145 142 140 140 139 137 135 134 134 129 128 125 125 117 116 116 112 72 44 33 22 14 13 7 8 7 3 9 9 6 14 5 5 10 7 8 5 5 3
149 140 145 164 171 177 160 151 219 244 214 213 183 159 212 258 333 256 86 131 60 114 80 126 123 116 137 130 157 118 141 147 151 144 143 148 147 152 157 157 154 152 152 155 153 155 152 152 148 146 145 143 140 135 136 138 131 129 133 140 136 116 88 75 19 8 4 9 3 3 5 2 357 4 4 358 2 355 6 7 6 1 4 4 5
129 135 150 163 202 187 143 163 177 235 114 178 164 97 77 79 21 4 337 44 359 333 60 81 145 146 151 124 113 114 127 149 147 145 148 142 143 153 163 163 163 162 160 161 163 164 159 156 150 150 150 154 149 146 144 144 140 148 146 151 149 150 104 345 3 342 353 359 355 350 350 350 355 356 356 350 2 359 13 1 1 1 6 8 14
146 146 123 142 145 153 107 80 121 131 54 33 55 43 91 48 19 62 348 298 180 199 258 188 200 133 142 122 125 123 156 205 140 153 143 141 146 153 156 167 168 168 170 168 167 166 161 160 164 161 159 151 151 161 146 150 166 164 173 167 200 199 260 333 334 344 345 347 351 347 347 351 352 357 354 353 6 2 5 6 6 8 9 17 21
166 125 111 110 105 60 69 55 37 59 92 68 50 25 29 336 81 2 352 307 218 358 263 178 57 8 132 127 117 147 95 109 123 145 145 144 148 152 162 161 169 172 173 176 176 173 170 167 165 168 169 166 160 159 156 168 182 194 174 214 298 283 321 328 335 342 332 330 347 353 351 342 0 1 7 4 10 8 9 11 13 14 16 26 28
105 56 140 129 122 77 92 92 72 55 101 106 77 48 39 340 60 43 340 10 315 283 330 344 90 314 48 108 108 116 166 154 117 125 137 147 154 157 156 158 160 170 175 183 184 179 178 174 170 171 169 173 175 181 187 194 210 217 219 241 261 276 297 309 322 327 324 326 351 345 341 354 5 22 12 17 7 10 8 19 9 16 26 33 32
102 95 62 93 120 99 91 61 54 101 97 82 64 55 39 5 10 37 342 348 303 136 277 60 83 359 357 66 111 114 89 85 99 109 107 132 152 153 152 158 163 168 173 170 190 190 182 181 180 175 174 174 178 184 194 199 218 225 228 250 253 278 273 298 312 318 314 334 339 354 354 11 23 20 8 0 13 17 17 12 2 9 34 34 32
116 101 99 118 119 138 108 130 131 116 91 79 160 94 62 352 330 62 65 25 339 0 360 275 174 184 133 159 114 138 44 113 155 126 114 127 119 139 146 158 167 164 169 170 171 188 189 185 182 181 177 180 185 189 189 198 205 209 220 227 236 246 239 254 296 304 334 337 327 360 9 25 22 2 356 3 19 27 13 1 351 10 33 32 50
126 137 150 125 94 90 120 153 145 110 100 126 112 149 288 94 189 1 69 351 303 79 211 261 225 199 185 112 73 53 84 317 96 92 119 128 173 141 151 160 166 163 154 168 169 159 186 189 186 183 185 187 190 196 196 202 205 208 214 229 237 232 230 224 243 295 319 333 341 6 10 17 9 352 0 14 17 19 6 344 330 40 32 58 57
145 128 89 112 127 120 129 154 109 112 108 62 146 183 205 241 130 142 93 53 343 10 284 275 233 226 78 93 114 141 104 82 56 137 146 134 177 137 160 147 167 162 170 165 161 150 165 190 193 188 192 193 194 200 204 209 217 214 212 218 221 229 220 232 224 231 261 296 337 356 320 356 11 9 1 0 9 2 348 316 298 81 85 94 95
148 138 141 151 155 135 137 142 138 127 119 112 55 122 285 15 40 34 52 235 140 282 237 272 289 325 86 84 70 86 113 124 229 325 195 167 160 164 119 141 125 127 166 167 149 157 155 164 180 190 195 197 199 200 205 214 214 215 220 220 229 219 226 220 224 222 231 237 216 226 285 317 328 46 203 284 59 20 321 298 131 180 165 151 134
149 145 140 139 120 141 110 192 143 153 134 159 186 183 187 64 52 42 10 332 247 166 309 274 304 40 47 108 113 87 90 206 155 178 155 145 13 334 132 148 119 167 171 160 167 150 156 166 181 188 177 189 198 197 204 206 208 208 212 218 212 211 213 220 227 222 215 223 239 212 197 230 230 265 228 216 233 229 251 218 195 205 203 201 192
148 131 130 130 122 109 109 250 149 148 151 170 172 156 134 103 65 16 329 177 279 129 232 356 44 42 341 289 89 152 147 281 242 161 168 73 129 230 66 118 133 53 70 56 109 142 152 180 191 164 159 165 196 202 202 201 200 203 207 211 213 217 221 225 229 233 213 217 237 222 204 207 215 225 227 238 233 228 219 214 211 222 210 204 212
144 141 142 147 138 160 174 157 201 146 147 174 151 153 127 61 130 221 187 266 232 136 235 102 284 169 183 258 148 188 134 199 200 150 62 179 162 178 207 149 153 145 127 126 139 146 159 175 144 128 164 166 179 182 199 202 202 206 209 210 213 216 217 222 225 224 218 225 241 187 198 206 221 226 224 229 230 222 216 208 206 216 213 215 212
157 160 156 180 167 166 175 170 155 164 152 133 153 116 169 165 202 189 357 277 326 51 76 108 260 159 64 84 176 132 3 305 292 177 157 217 185 166 167 141 105 97 158 180 181 165 134 119 101 139 148 171 177 178 181 189 197 200 207 208 214 216 213 217 220 219 218 226 224 202 199 206 220 230 222 221 223 219 219 217 218 218 219 220 220
170 172 174 171 168 160 110 146 150 138 151 137 155 164 155 184 218 225 244 236 175 71 20 133 299 86 165 236 171 175 149 251 212 249 192 210 170 161 228 119 120 127 177 196 138 114 135 129 142 120 181 203 113 168 174 185 193 191 197 202 208 211 213 216 219 225 229 227 229 210 204 211 221 228 228 223 222 223 222 221 219 222 226 225 224
167 177 180 161 175 162 148 187 150 152 154 152 163 184 162 191 197 204 218 315 33 88 357 298 239 318 324 334 306 114 230 173 184 257 190 212 202 139 91 153 131 151 184 87 108 170 168 137 141 165 151 95 267 222 132 154 164 181 194 202 202 204 209 214 218 225 228 227 226 222 211 213 220 224 229 227 224 226 223 224 225 226 227 227 231
163 181 183 158 169 174 144 190 161 169 149 151 154 168 177 199 181 184 179 282 71 50 267 314 309 235 310 222 174 168 219 292 132 263 301 9 342 112 153 205 140 158 185 145 171 174 243 132 160 159 165 170 188 211 177 160 167 180 182 201 199 201 203 210 220 224 225 230 227 224 216 221 221 225 227 227 227 226 227 227 228 227 228 231 232
177 175 187 162 160 182 179 176 163 198 162 146 179 196 181 206 180 152 157 168 212 107 267 312 275 195 233 245 191 297 25 41 40 63 354 320 357 316 162 188 160 157 179 198 171 179 195 143 180 166 166 185 173 195 177 177 170 175 190 191 190 199 206 208 217 222 226 228 231 232 226 224 225 227 230 230 231 230 231 231 231 231 231 232 232
181 158 179 159 170 177 190 202 188 185 170 175 192 160 106 240 184 145 138 162 240 134 65 255 279 250 219 313 117 46 359 341 74 22 113 301 307 323 311 155 222 173 175 197 171 168 164 141 157 143 165 187 165 186 189 193 157 160 162 170 184 198 207 209 214 219 224 228 231 232 232 232 229 229 230 232 233 233 232 231 233 232 232 233 234
208 164 175 172 179 173 187 205 216 226 163 188 204 158 172 169 140 150 156 192 160 146 184 201 13 309 85 275 358 71 178 200 96 283 148 25 331 176 273 0 343 49 36 3 334 139 153 163 189 169 159 169 172 184 209 185 170 170 171 177 186 197 204 208 212 218 223 229 233 233 234 234 234 233 232 233 233 232 232 233 233 233 233 234 236
185 196 162 188 167 182 193 199 214 216 186 222 203 157 145 163 170 169 173 151 190 175 225 268 168 333 351 87 22 337 356 339 157 197 145 164 212 261 218 184 200 336 262 226 33 353 131 167 176 194 163 165 170 184 203 212 173 177 183 183 193 199 205 209 213 219 224 228 231 234 234 234 235 235 234 233 234 233 233 233 234 233 233 234 236
180 181 184 183 187 186 199 195 205 203 200 266 200 200 158 163 169 160 170 161 198 207 218 209 170 174 244 129 187 213 185 227 309 23 352 117 324 311 329 10 35 162 249 79 172 253 127 160 196 201 164 167 174 177 192 205 191 211 177 185 194 201 206 211 213 219 224 226 230 232 234 235 236 236 236 235 234 235 235 235 235 235 235 235 236
172 175 195 193 186 188 202 200 186 198 179 210 232 226 224 161 165 153 176 185 174 123 257 0 246 128 260 198 215 224 158 241 214 150 128 318 18 319 319 257 331 319 159 171 175 231 199 179 201 224 171 172 170 172 183 191 195 176 170 187 195 202 208 209 212 219 223 226 228 231 234 235 237 238 238 238 237 237 237 237 237 237 236 235 236
184 180 182 197 175 181 193 219 179 190 179 179 224 267 327 352 142 157 169 148 201 193 244 226 209 222 238 276 270 225 189 228 247 180 171 152 152 257 299 329 243 223 267 104 230 212 230 196 179 182 167 147 159 161 168 187 188 183 180 192 198 204 209 214 217 220 223 226 229 230 233 235 237 238 240 239 238 237 238 238 238 238 237 238 237
205 200 192 187 181 172 181 200 209 176 181 179 187 206 124 304 43 150 183 161 161 184 227 215 240 216 213 232 320 299 225 214 182 255 171 167 184 215 219 280 308 307 211 162 208 241 282 279 136 142 133 162 164 167 188 203 213 193 194 195 203 206 212 216 220 222 225 227 230 231 233 233 234 236 237 238 238 237 236 237 239 240 240 240 238
199 190 217 187 176 165 174 188 202 184 170 178 195 185 189 182 269 200 265 144 176 198 199 232 219 219 192 233 230 337 299 322 247 195 259 178 179 197 88 48 327 330 314 194 169 208 271 147 202 154 153 145 155 163 193 198 232 199 205 203 198 211 216 220 223 225 226 228 230 232 232 234 234 235 236 236 236 236 237 237 238 239 240 242 241
186 192 190 211 176 169 169 185 188 187 174 180 193 194 179 195 188 219 217 229 198 192 220 239 238 244 223 230 221 253 256 276 304 315 340 50 58 71 100 101 123 304 333 326 341 241 222 217 214 127 144 153 187 204 222 211 242 192 204 211 218 212 219 224 227 229 230 231 233 234 234 235 235 236 237 237 236 237 236 239 240 240 240 241 242
175 188 190 188 198 176 175 184 185 182 179 182 193 200 180 189 197 194 213 233 199 211 206 210 269 203 205 225 200 224 241 274 304 317 70 55 42 48 55 120 118 97 308 313 309 319 332 335 119 169 139 153 191 216 214 225 228 199 205 216 227 237 218 223 230 233 234 234 235 236 237 238 239 240 242 243 243 241 241 242 242 242 241 241 240
199 187 185 179 194 193 178 181 174 186 189 187 189 198 193 195 198 188 202 218 242 237 206 249 230 222 229 215 220 184 219 234 197 263 94 102 123 117 215 181 136 148 205 289 295 316 305 309 315 147 175 189 186 224 242 210 225 208 213 212 225 232 238 226 225 230 233 235 237 238 240 242 244 246 249 251 251 250 250 249 249 248 246 245 244
202 206 172 180 184 193 190 188 175 180 187 189 184 193 196 198 204 195 197 185 207 229 236 206 240 250 260 243 183 212 210 248 303 260 149 145 150 213 229 167 157 168 202 195 287 280 245 285 331 50 163 201 209 213 223 211 215 211 216 224 227 237 243 245 234 232 235 239 242 245 247 247 248 247 248 248 248 248 248 249 250 252 252 251 249
198 201 189 182 182 190 195 198 195 187 185 195 186 188 192 199 206 207 194 183 189 213 224 216 229 212 201 220 237 250 234 194 235 282 263 146 176 181 219 206 169 173 181 212 243 264 302 305 309 307 287 220 233 263 265 258 218 207 225 234 242 243 247 249 250 239 237 243 248 250 251 250 249 247 246 246 248 249 249 249 250 251 252 252 252
194 195 202 194 184 188 194 197 202 190 188 187 191 184 188 194 206 209 217 176 189 196 203 240 253 216 198 200 206 207 219 234 228 235 253 207 188 204 210 202 177 183 189 222 242 265 274 267 271 286 303 316 285 217 245 249 248 228 222 235 239 247 249 251 253 253 244 244 246 247 248 248 248 247 246 247 249 250 250 251 251 252 253 252 252
196 195 195 201 195 187 195 192 200 197 186 180 187 187 184 193 199 209 224 198 181 195 198 208 227 255 237 198 202 214 195 224 243 230 232 252 197 193 195 206 206 203 188 195 230 243 269 267 281 267 273 261 270 267 263 258 256 252 248 240 240 241 250 257 265 271 258 246 243 246 248 251 252 253 253 253 252 252 251 252 252 253 253 254 253
196 201 188 198 199 196 196 194 191 202 188 185 186 190 186 189 196 210 206 211 195 191 198 204 209 217 240 230 215 208 217 213 211 238 250 248 258 239 199 191 201 211 199 195 210 248 266 263 258 284 278 282 268 283 276 273 272 260 258 260 259 258 255 254 259 269 265 277 257 246 249 252 253 255 255 254 253 253 254 254 254 255 256 256 255
197 196 195 190 196 197 199 197 192 194 195 187 189 194 190 188 194 204 215 197 203 205 202 201 210 212 211 216 225 219 213 219 213 210 222 252 266 267 282 252 188 200 201 195 198 219 249 271 248 261 276 276 280 277 281 283 284 285 277 277 270 266 266 260 251 263 274 279 285 285 269 255 252 252 253 254 253 253 254 255 257 258 259 258 257
201 191 196 191 190 193 198 201 198 194 195 191 189 195 198 191 191 199 208 213 200 200 206 208 208 207 212 216 211 221 229 221 212 211 225 235 235 250 247 240 238 226 224 221 236 234 260 266 271 247 254 260 263 272 272 275 274 267 263 259 267 271 274 269 276 266 262 261 262 265 270 267 264 263 260 257 256 255 255 255 256 258 259 258 258
202 194 190 195 192 190 196 198 200 197 195 193 191 195 200 199 194 198 200 208 215 204 200 205 213 212 213 209 217 210 215 221 226 220 213 223 228 232 243 252 233 209 209 213 206 226 239 260 271 273 257 267 271 258 262 264 274 276 271 266 270 275 282 285 266 274 280 288 296 289 294 291 283 272 265 262 262 259 257 255 255 257 258 260 261
202 203 192 194 196 193 192 196 199 198 194 195 192 194 199 200 195 196 203 201 207 211 211 209 210 211 215 218 213 215 218 215 219 220 217 216 221 237 237 230 238 244 241 217 212 214 218 242 258 259 263 254 251 267 256 245 255 259 277 285 278 265 269 276 271 254 275 286 292 299 289 283 284 283 283 283 278 270 264 261 258 256 257 261 264
202 204 200 193 193 196 192 196 199 196 193 195 194 195 200 202 195 193 200 203 203 207 211 212 216 215 210 214 219 216 217 219 219 220 218 221 207 223 229 238 232 234 236 236 236 229 228 236 247 261 258 259 259 273 283 278 271 269 256 262 276 299 17 60 99 286 292 305 301 299 290 290 291 289 288 278 272 272 269 266 260 256 256 257 259
201 204 206 195 191 196 196 194 198 198 197 197 197 195 197 203 204 196 194 203 206 204 205 211 212 218 220 214 213 218 206 206 208 214 224 220 223 217 217 221 232 227 229 234 235 246 255 251 261 266 269 267 255 254 262 261 261 265 270 268 285 357 9 10 296 251 274 303 298 298 289 297 301 294 291 298 299 293 282 265 261 257 253 252 253
195 201 204 202 190 191 195 193 195 201 202 201 198 195 192 197 203 206 195 198 206 208 203 206 211 210 220 229 227 215 209 202 202 205 211 219 219 226 220 209 219 223 231 235 231 236 245 252 255 259 260 252 240 236 246 249 261 275 281 290 303 357 345 325 293 260 307 305 293 289 289 296 301 299 300 303 306 301 301 304 291 273 252 243 247
194 195 200 203 199 190 195 197 197 202 207 206 193 190 192 195 198 205 201 197 199 206 208 205 211 215 214 216 234 243 222 210 203 202 205 212 216 218 228 232 223 229 234 230 234 234 243 252 254 251 254 256 244 252 258 272 276 281 287 325 341 351 348 338 320 319 192 324 302 302 299 302 297 293 302 305 305 307 302 287 288 289 292 290 280
189 189 198 203 204 194 190 197 200 202 206 204 185 188 190 194 198 202 207 205 199 202 208 210 210 214 222 221 217 222 224 213 186 198 207 212 214 220 223 228 232 238 232 225 241 258 258 273 263 256 261 261 265 264 278 283 285 294 295 319 353 340 321 315 293 301 310 334 318 313 301 303 303 296 302 302 298 297 300 298 307 324 319 305 292
182 190 196 201 206 206 194 190 200 201 207 199 182 185 189 193 199 202 208 210 208 204 203 209 211 211 212 224 235 224 223 214 205 190 195 210 219 221 223 226 233 235 242 243 234 233 252 263 271 272 259 274 288 274 263 221 242 277 297 309 341 58 120 291 296 304 305 322 310 305 305 302 295 283 285 289 292 298 311 321 327 326 320 314 323
187 191 195 198 204 207 209 194 193 199 205 187 181 184 188 191 196 200 211 209 212 213 203 203 208 211 209 211 217 229 233 221 206 200 191 203 205 211 211 220 226 238 243 247 248 244 236 241 255 263 263 248 263 266 261 222 247 267 285 303 34 15 350 310 300 291 286 272 259 287 290 290 269 291 296 301 307 317 320 318 318 310 311 325 324
191 190 194 197 200 206 210 211 198 196 206 178 179 183 188 190 195 196 209 217 218 214 212 205 201 205 209 211 213 219 221 227 216 202 196 194 191 202 212 218 223 231 232 233 227 223 223 225 237 252 261 257 250 258 258 245 237 254 290 62 94 282 262 272 267 256 266 244 230 227 286 305 315 298 282 300 313 309 308 307 299 302 331 354 355
194 188 193 200 199 202 206 210 216 206 204 172 179 183 187 191 189 187 203 213 226 237 232 217 208 201 203 207 212 216 219 219 218 210 205 196 200 202 198 207 219 225 227 225 223 219 221 218 230 238 247 241 240 246 292 358 27 86 98 114 165 206 246 271 280 275 280 300 291 283 288 295 307 307 310 297 305 317 311 297 307 3 11 2 349
190 190 191 198 199 202 204 206 214 216 207 178 180 184 185 187 178 185 200 207 219 226 239 250 256 225 209 208 209 214 216 221 214 202 207 196 207 209 214 217 219 228 223 219 211 212 212 221 226 234 238 253 272 267 344 63 84 96 124 160 197 215 289 301 300 323 322 318 286 267 267 300 329 330 320 334 346 305 306 330 3 5 4 346 331
192 192 193 196 201 207 205 206 206 207 217 177 182 183 186 179 177 185 196 203 215 220 228 235 242 250 245 227 221 221 221 220 205 197 198 194 209 212 216 225 229 236 245 261 263 209 214 214 236 269 274 258 261 299 294 354 79 78 83 298 329 354 314 315 320 331 317 292 5 1 9 322 341 349 334 326 323 267 328 0 357 356 348 334 353
195 191 193 197 202 206 208 207 202 203 216 181 182 176 181 178 184 191 189 199 208 212 214 224 224 232 241 240 232 229 229 226 208 195 194 191 209 210 216 222 231 236 239 237 241 224 156 150 246 254 265 264 259 170 44 8 83 126 136 199 26 355 318 335 328 320 320 312 37 351 12 325 351 9 1 336 326 322 50 14 357 354 329 343 354